Flag for Hong Kong Weather past 2 weeks in Kowloon, Hong Kong

Now
79 °F

Sprinkles. Scattered clouds.


Feels Like: 83 °F
Forecast: 78 / 87 °F
Wind: 10 mph from East

Location: National Airport

Current Time: May 23, 2015 at 7:55:56 AM

Latest Report: May 23, 2015 at 7:30 AM


Visibility: N/A

Pressure: 29.71 "Hg

Humidity: 94%

Dew point: 77 °F

Location of KowloonLocation

Historic Weather in Kowloon — Graph

°F

Kowloon temperature yesterday

Maximum temperature yesterday: 81 °F (at 12:30 PM)
Minimum temperature yesterday: 75 °F (at 12:30 AM)
Average temperature yesterday: 77 °F

Past Weeks' High & Low Weather Summary

 TemperatureHumidityPressure
High91 °F (May 9, 1:00 PM)100% (May 20, 8:00 PM)29.95 "Hg (May 20, 8:00 PM)
Low73 °F (May 11, 6:00 PM)42% (May 12, 4:00 PM)29.65 "Hg (May 19, 5:30 PM)
Average82 °F77%29.79 "Hg
* Reported May 8 7:00 AM — May 23 7:00 AM, Kowloon, Weather by CustomWeather, © 2015

Note: Actual official high and low records may vary slightly from our data, if they occured in-between our weather recording intervals... More about our weather records

Advertising

Kowloon weather history for previous 24 hours

 ConditionsComfort  
Time TempWeatherWind HumidityBarometerVisibility
7:00 AM
Sat, May 23
81 °FSprinkles. Scattered clouds.9 mph89%29.71 "HgN/A
6:30 AM79 °FSprinkles. Scattered clouds.8 mph94%29.71 "HgN/A
6:00 AM79 °FSprinkles. Scattered clouds.9 mph89%29.68 "HgN/A
5:30 AM81 °FThundershowers. Passing clouds.9 mph84%29.68 "HgN/A
5:00 AM82 °FThundershowers. Passing clouds.6 mph79%29.68 "HgN/A
4:30 AM81 °FThunderstorms. Passing clouds.5 mph84%29.68 "HgN/A
4:00 AM79 °FThunderstorms. Passing clouds.8 mph94%29.71 "Hg4 mi
3:30 AM79 °FThundershowers. Passing clouds.9 mph89%29.68 "HgN/A
3:00 AM79 °FPassing clouds.12 mph89%29.68 "HgN/A
2:30 AM79 °FPassing clouds.10 mph89%29.68 "HgN/A
2:00 AM79 °FPassing clouds.12 mph89%29.71 "HgN/A
1:30 AM77 °FPassing clouds.13 mph89%29.71 "HgN/A
1:00 AM79 °FPassing clouds.18 mph84%29.74 "HgN/A
12:30 AM79 °FPassing clouds.17 mph84%29.74 "HgN/A
12:00 AM79 °FPassing clouds.15 mph89%29.74 "HgN/A
11:30 PM
Fri, May 22
79 °FPassing clouds.21 mph84%29.74 "HgN/A
11:00 PM79 °FPassing clouds.14 mph84%29.74 "HgN/A
10:30 PM77 °FPassing clouds.15 mph89%29.74 "HgN/A
10:00 PM77 °FPassing clouds.16 mph89%29.74 "HgN/A
9:30 PM77 °FSprinkles. Passing clouds.14 mph89%29.74 "HgN/A
9:00 PM79 °FSprinkles. Passing clouds.16 mph84%29.74 "Hg6 mi
8:30 PM77 °FPassing clouds.18 mph89%29.74 "HgN/A
8:00 PM77 °FSprinkles. Passing clouds.16 mph89%29.74 "HgN/A
7:30 PM77 °FPassing clouds.15 mph89%29.74 "HgN/A
7:00 PM77 °FPassing clouds.14 mph89%29.71 "HgN/A
6:30 PM77 °FScattered clouds.16 mph89%29.71 "HgN/A
6:00 PM79 °FSprinkles. Scattered clouds.20 mph84%29.68 "HgN/A
5:30 PM79 °FScattered clouds.20 mph84%29.68 "HgN/A
5:00 PM79 °FSprinkles. Scattered clouds.22 mph79%29.71 "HgN/A
4:30 PM79 °FScattered clouds.20 mph79%29.71 "HgN/A
4:00 PM79 °FScattered clouds.18 mph79%29.71 "HgN/A
3:30 PM79 °FScattered clouds.20 mph79%29.71 "HgN/A
3:00 PM81 °FScattered clouds.20 mph74%29.74 "HgN/A
2:30 PM79 °FSprinkles. Scattered clouds.20 mph79%29.74 "HgN/A
2:00 PM79 °FScattered clouds.21 mph79%29.74 "HgN/A
1:30 PM77 °FScattered clouds.25 mph83%29.77 "HgN/A
1:00 PM79 °FScattered clouds.20 mph79%29.77 "HgN/A
12:30 PM81 °FScattered clouds.21 mph74%29.77 "HgN/A
12:00 PM79 °FScattered clouds.18 mph79%29.77 "HgN/A
11:30 AM79 °FScattered clouds.18 mph79%29.80 "HgN/A
11:00 AM79 °FScattered clouds.20 mph79%29.80 "HgN/A
10:30 AM79 °FScattered clouds.18 mph79%29.80 "HgN/A
10:00 AM79 °FScattered clouds.17 mph79%29.80 "HgN/A
9:30 AM79 °FScattered clouds.16 mph84%29.80 "HgN/A
9:00 AM79 °FScattered clouds.16 mph84%29.77 "HgN/A
8:30 AM79 °FScattered clouds.14 mph79%29.77 "HgN/A
8:00 AM77 °FScattered clouds.15 mph83%29.77 "HgN/A
7:30 AM77 °FScattered clouds.15 mph83%29.80 "HgN/A
7:00 AM77 °FScattered clouds.16 mph83%29.77 "HgN/A
Weather by CustomWeather, © 2015

See weather overviewHow to use our weather pages